Baltimore, MD

8:04 AM EDT on July 28, 2016 (GMT -0400)
Baltimore-Washington International

Weather History for KBWI - February, 2013

Change the Weather History Date:

Sunday, February 3, 2013

  Actual Average Record
Temperature  
Mean Temperature 27 °F 34 °F  
Max Temperature 34 °F 43 °F 66 °F (1932)
Min Temperature 20 °F 25 °F 4 °F (1961)
Degree Days  
Heating Degree Days 38 31  
Month to date heating degree days 119 93  
Since 1 July heating degree days 2578 2869  
Cooling Degree Days 0 0  
Month to date cooling degree days 0 0  
Year to date cooling degree days 0 0  
Moisture  
Dew Point 24 °F    
Average Humidity 82    
Maximum Humidity 100    
Minimum Humidity 63    
Precipitation  
Precipitation T in 0.10 in 1.34 in (2014)
Month to date precipitation 0.03 0.31  
Year to date precipitation 3.67 3.36  
Snow  
Snow T in 0.30 in 9.60 in (1961)
Month to date snowfall 0.3 1.0  
Since 1 July snowfall 4.6 11.2  
Snow Depth T in    
Sea Level Pressure  
Sea Level Pressure 29.90 in    
Wind  
Wind Speed 4 mph (West)    
Max Wind Speed 18 mph    
Max Gust Speed 24 mph    
Visibility 7 miles    
Events Snow    
T = Trace of Precipitation, MM = Missing Value Source: NWS Daily Summary

Daily Weather History Graph

Daily Weather History Graph

Search for Another Location

Airport or City:

Trip Planner

Search our weather history database for the weather conditions in past years. The results will help you decide how hot, cold, wet, or windy it might be!

Date:

Astronomy

Feb. 03, 2013 Rise Set
Actual Time 7:11 AM EST 5:30 PM EST
Civil Twilight 6:43 AM EST 5:58 PM EST
Nautical Twilight 6:11 AM EST 6:30 PM EST
Astronomical Twilight 5:40 AM EST 7:01 PM EST
Moon 12:36 AM EST (2/3) 11:06 AM EST (2/3)
Length of Visible Light 11h 15m
Length of Day
10h 18m
Waning Gibbous, 49% of the Moon is Illuminated
Feb 3
Waning Gibbous
Feb 10
New
Feb 17
First Quarter
Feb 25
Full
Mar 4
Last Quarter

Hourly Weather History & Observations

Time (EST) Temp. Windchill Dew Point Humidity Pressure Visibility Wind Dir Wind Speed Gust Speed Precip Events Conditions
12:54 AM 26.1 °F 21.9 °F 25.0 °F 96% 29.99 in 6.0 mi NNW 3.5 mph - 0.00 in   Overcast
1:54 AM 24.1 °F - 23.0 °F 96% 29.98 in 6.0 mi Calm Calm - N/A   Overcast
2:54 AM 24.1 °F - 21.9 °F 91% 29.96 in 6.0 mi Calm Calm - N/A   Overcast
3:54 AM 23.0 °F - 21.0 °F 92% 29.94 in 6.0 mi Calm Calm - N/A   Overcast
4:54 AM 21.0 °F - 21.0 °F 100% 29.93 in 6.0 mi Calm Calm - N/A   Overcast
5:54 AM 21.0 °F - 19.0 °F 92% 29.93 in 6.0 mi Calm Calm - N/A   Mostly Cloudy
6:54 AM 21.0 °F - 19.0 °F 92% 29.93 in 4.0 mi Calm Calm - N/A   Mostly Cloudy
7:26 AM 21.2 °F 16.4 °F 17.6 °F 86% 29.93 in 4.0 mi Variable 3.5 mph - N/A   Mostly Cloudy
7:54 AM 21.0 °F 16.2 °F 19.9 °F 96% 29.94 in 5.0 mi Variable 3.5 mph - N/A   Overcast
8:54 AM 27.0 °F 20.5 °F 24.1 °F 89% 29.95 in 5.0 mi NE 5.8 mph - 0.00 in Snow Light Snow
9:10 AM 26.6 °F 19.1 °F 24.8 °F 93% 29.95 in 5.0 mi NE 6.9 mph - 0.00 in   Overcast
9:24 AM 26.6 °F 19.1 °F 24.8 °F 93% 29.94 in 6.0 mi NE 6.9 mph - 0.00 in   Overcast
9:54 AM 27.0 °F 23.0 °F 24.1 °F 89% 29.94 in 5.0 mi NE 3.5 mph - 0.00 in   Overcast
10:43 AM 28.4 °F 24.6 °F 24.8 °F 86% 29.92 in 6.0 mi East 3.5 mph - N/A   Overcast
10:54 AM 28.9 °F 25.2 °F 24.1 °F 82% 29.92 in 6.0 mi East 3.5 mph - N/A   Haze
11:40 AM 30.2 °F - 23.0 °F 75% 29.90 in 7.0 mi Calm Calm - N/A   Mostly Cloudy
11:54 AM 30.0 °F - 23.0 °F 75% 29.90 in 7.0 mi Calm Calm - N/A   Overcast
12:40 PM 30.2 °F - 24.8 °F 80% 29.87 in 7.0 mi Calm Calm - 0.00 in Snow Light Snow
12:54 PM 30.9 °F - 23.0 °F 72% 29.87 in 7.0 mi Calm Calm - 0.00 in   Mostly Cloudy
1:54 PM 34.0 °F - 24.1 °F 67% 29.85 in 9.0 mi Calm Calm - N/A   Mostly Cloudy
2:41 PM 33.8 °F 28.6 °F 23.0 °F 65% 29.83 in 8.0 mi WNW 5.8 mph - 0.00 in Snow Light Snow
2:54 PM 33.1 °F 26.1 °F 24.1 °F 70% 29.84 in 8.0 mi West 8.1 mph - 0.00 in Snow Light Snow
3:45 PM 33.8 °F 29.6 °F 26.6 °F 75% 29.84 in 9.0 mi West 4.6 mph - 0.00 in   Mostly Cloudy
3:54 PM 34.0 °F 28.0 °F 26.1 °F 73% 29.84 in 9.0 mi SW 6.9 mph - 0.00 in Snow Light Snow
4:36 PM 32.0 °F 27.5 °F 26.6 °F 80% 29.84 in 9.0 mi SW 4.6 mph - 0.00 in   Mostly Cloudy
4:54 PM 32.0 °F 28.7 °F 26.1 °F 79% 29.83 in 9.0 mi SSW 3.5 mph - 0.00 in   Mostly Cloudy
5:54 PM 30.9 °F 27.5 °F 27.0 °F 85% 29.84 in 9.0 mi South 3.5 mph - N/A   Mostly Cloudy
6:54 PM 30.0 °F - 27.0 °F 88% 29.85 in 7.0 mi Calm Calm - N/A   Mostly Cloudy
7:54 PM 30.0 °F 25.2 °F 26.1 °F 85% 29.86 in 9.0 mi SW 4.6 mph - 0.00 in   Mostly Cloudy
8:54 PM 30.9 °F 25.2 °F 27.0 °F 85% 29.87 in 8.0 mi WSW 5.8 mph - N/A   Mostly Cloudy
9:54 PM 32.0 °F 23.6 °F 26.1 °F 79% 29.89 in 7.0 mi West 10.4 mph - N/A   Overcast
9:58 PM 32.0 °F 22.5 °F 26.6 °F 80% 29.89 in 2.0 mi WNW 12.7 mph 19.6 mph 0.00 in Snow Light Snow
10:09 PM 32.0 °F 22.1 °F 26.6 °F 80% 29.89 in 5.0 mi West 13.8 mph - 0.00 in Snow Light Snow
10:32 PM 32.0 °F 24.2 °F 24.8 °F 75% 29.90 in 10.0 mi West 9.2 mph - 0.00 in   Overcast
10:54 PM 32.0 °F 22.5 °F 21.0 °F 64% 29.91 in 10.0 mi WNW 12.7 mph 18.4 mph 0.00 in   Overcast
11:54 PM 30.0 °F 19.5 °F 16.0 °F 56% 29.94 in 10.0 mi WNW 13.8 mph 23.0 mph N/A   Mostly Cloudy